Terminal Aerodrome Forecast
Issued by NWS

Home | Current Version | Previous Version | Text Only | Print | Product List | Glossary On
Versions: 1 2 3 4 5 6 7 8 9 10 11 12
000
FTUS42 TJSJ 232300
TAFJBQ
TAF
TJBQ 232320Z 2400/2424 10010KT P6SM FEW025
     FM241300 08018G26KT P6SM FEW030
     FM242300 09008KT P6SM SCT025
      AMD NOT SKED 2402/2411=

USA.gov is the U.S. government's official web portal to all federal, state and local government web resources and services.